Location: Elstree
(51.6403°N, 0.2969°W)
Time: 21:45:38
(UTC+00:00)

Cosmos 1943 Rocket - Pass Details

Date: 03 March 2021
Orbit: 811 x 844 km, 71.0° (Epoch: 15 April)

Event Time Altitude Azimuth Distance (km) Brightness Sun altitude
Rises 22:25:24 0° 328° (NNW) 3,416 6.3 -39.7°
Reaches altitude 10° 22:27:52 10° 326° (NW) 2,476 5.3 -39.9°
Enters shadow 22:30:02 24° 321° (NW) 1,691 4.2 -40.1°
